Year,Month,Day,Hour,Minute,Value (Times are PST for temperature in C)
2009,08,03,00,00,21.20
2009,08,03,00,01,21.20
2009,08,03,00,02,21.20
2009,08,03,00,03,21.20
2009,08,03,00,04,21.20
2009,08,03,00,05,21.20
2009,08,03,00,06,21.20
2009,08,03,00,07,21.20
2009,08,03,00,08,21.20
2009,08,03,00,09,21.20
2009,08,03,00,10,21.20
2009,08,03,00,11,21.10
2009,08,03,00,12,21.10
2009,08,03,00,13,21.10
2009,08,03,00,14,21.10
2009,08,03,00,15,21.10
2009,08,03,00,16,21.10
2009,08,03,00,17,21.10
2009,08,03,00,18,21.10
2009,08,03,00,19,21.10
2009,08,03,00,20,21.00
2009,08,03,00,21,21.00
2009,08,03,00,22,21.00
2009,08,03,00,23,21.00
2009,08,03,00,24,21.00
2009,08,03,00,25,20.90
2009,08,03,00,26,20.90
2009,08,03,00,27,20.90
2009,08,03,00,28,20.90
2009,08,03,00,29,20.90
2009,08,03,00,30,20.80
2009,08,03,00,31,20.80
2009,08,03,00,32,20.80
2009,08,03,00,33,20.80
2009,08,03,00,34,20.70
2009,08,03,00,35,20.70
2009,08,03,00,36,20.60
2009,08,03,00,37,20.60
2009,08,03,00,38,20.60
2009,08,03,00,39,20.50
2009,08,03,00,40,20.50
2009,08,03,00,41,20.40
2009,08,03,00,42,20.40
2009,08,03,00,43,20.40
2009,08,03,00,44,20.30
2009,08,03,00,45,20.30
2009,08,03,00,46,20.30
2009,08,03,00,47,20.20
2009,08,03,00,48,20.20
2009,08,03,00,49,20.20
2009,08,03,00,50,20.10
2009,08,03,00,51,20.10
2009,08,03,00,52,20.10
2009,08,03,00,53,20.10
2009,08,03,00,54,20.00
2009,08,03,00,55,20.00
2009,08,03,00,56,20.00
2009,08,03,00,57,19.90
2009,08,03,00,58,19.90
2009,08,03,00,59,19.90
2009,08,03,01,00,19.90
2009,08,03,01,01,19.90
2009,08,03,01,02,19.90
2009,08,03,01,03,19.80
2009,08,03,01,04,19.80
2009,08,03,01,05,19.80
2009,08,03,01,06,19.80
2009,08,03,01,07,19.80
2009,08,03,01,08,19.80
2009,08,03,01,09,19.80
2009,08,03,01,10,19.80
2009,08,03,01,11,19.80
2009,08,03,01,12,19.70
2009,08,03,01,13,19.70
2009,08,03,01,14,19.70
2009,08,03,01,15,19.70
2009,08,03,01,16,19.70
2009,08,03,01,17,19.70
2009,08,03,01,18,19.60
2009,08,03,01,19,19.60
2009,08,03,01,20,19.60
2009,08,03,01,21,19.60
2009,08,03,01,22,19.60
2009,08,03,01,23,19.50
2009,08,03,01,24,19.50
2009,08,03,01,25,19.50
2009,08,03,01,26,19.40
2009,08,03,01,27,19.40
2009,08,03,01,28,19.40
2009,08,03,01,29,19.30
2009,08,03,01,30,19.30
2009,08,03,01,31,19.30
2009,08,03,01,32,19.30
2009,08,03,01,33,19.20
2009,08,03,01,34,19.20
2009,08,03,01,35,19.20
2009,08,03,01,36,19.20
2009,08,03,01,37,19.20
2009,08,03,01,38,19.20
2009,08,03,01,39,19.20
2009,08,03,01,40,19.20
2009,08,03,01,41,19.20
2009,08,03,01,42,19.20
2009,08,03,01,43,19.20
2009,08,03,01,44,19.20
2009,08,03,01,45,19.20
2009,08,03,01,46,19.20
2009,08,03,01,47,19.20
2009,08,03,01,48,19.20
2009,08,03,01,49,19.20
2009,08,03,01,50,19.20
2009,08,03,01,51,19.20
2009,08,03,01,52,19.20
2009,08,03,01,53,19.10
2009,08,03,01,54,19.10
2009,08,03,01,55,19.10
2009,08,03,01,56,19.10
2009,08,03,01,57,19.10
2009,08,03,01,58,19.10
2009,08,03,01,59,19.10
2009,08,03,02,00,19.10
2009,08,03,02,01,19.10
2009,08,03,02,02,19.10
2009,08,03,02,03,19.10
2009,08,03,02,04,19.00
2009,08,03,02,05,19.00
2009,08,03,02,06,19.00
2009,08,03,02,07,19.00
2009,08,03,02,08,19.00
2009,08,03,02,09,19.00
2009,08,03,02,10,19.00
2009,08,03,02,11,19.00
2009,08,03,02,12,19.00
2009,08,03,02,13,19.10
2009,08,03,02,14,19.10
2009,08,03,02,15,19.00
2009,08,03,02,16,19.00
2009,08,03,02,17,19.00
2009,08,03,02,18,18.90
2009,08,03,02,19,18.90
2009,08,03,02,20,18.90
2009,08,03,02,21,18.90
2009,08,03,02,22,18.90
2009,08,03,02,23,18.90
2009,08,03,02,24,18.90
2009,08,03,02,25,18.90
2009,08,03,02,26,18.90
2009,08,03,02,27,18.90
2009,08,03,02,28,18.90
2009,08,03,02,29,18.90
2009,08,03,02,30,18.90
2009,08,03,02,31,18.80
2009,08,03,02,32,18.80
2009,08,03,02,33,18.80
2009,08,03,02,34,18.80
2009,08,03,02,35,18.80
2009,08,03,02,36,18.80
2009,08,03,02,37,18.80
2009,08,03,02,38,18.80
2009,08,03,02,39,18.70
2009,08,03,02,40,18.70
2009,08,03,02,41,18.70
2009,08,03,02,42,18.70
2009,08,03,02,43,18.60
2009,08,03,02,44,18.60
2009,08,03,02,45,18.60
2009,08,03,02,46,18.60
2009,08,03,02,47,18.60
2009,08,03,02,48,18.60
2009,08,03,02,49,18.50
2009,08,03,02,50,18.50
2009,08,03,02,51,18.50
2009,08,03,02,52,18.50
2009,08,03,02,53,18.40
2009,08,03,02,54,18.40
2009,08,03,02,55,18.40
2009,08,03,02,56,18.40
2009,08,03,02,57,18.40
2009,08,03,02,58,18.40
2009,08,03,02,59,18.40
2009,08,03,03,00,18.30
2009,08,03,03,01,18.30
2009,08,03,03,02,18.30
2009,08,03,03,03,18.30
2009,08,03,03,04,18.30
2009,08,03,03,05,18.30
2009,08,03,03,06,18.30
2009,08,03,03,07,18.20
2009,08,03,03,08,18.20
2009,08,03,03,09,18.20
2009,08,03,03,10,18.20
2009,08,03,03,11,18.20
2009,08,03,03,12,18.10
2009,08,03,03,13,18.10
2009,08,03,03,14,18.10
2009,08,03,03,15,18.10
2009,08,03,03,16,18.10
2009,08,03,03,17,18.10
2009,08,03,03,18,18.10
2009,08,03,03,19,18.10
2009,08,03,03,20,18.00
2009,08,03,03,21,18.00
2009,08,03,03,22,18.00
2009,08,03,03,23,18.00
2009,08,03,03,24,17.90
2009,08,03,03,25,17.90
2009,08,03,03,26,17.90
2009,08,03,03,27,17.90
2009,08,03,03,28,17.90
2009,08,03,03,29,17.90
2009,08,03,03,30,17.90
2009,08,03,03,31,17.90
2009,08,03,03,32,17.90
2009,08,03,03,33,17.90
2009,08,03,03,34,17.90
2009,08,03,03,35,17.90
2009,08,03,03,36,17.80
2009,08,03,03,37,17.80
2009,08,03,03,38,17.80
2009,08,03,03,39,17.80
2009,08,03,03,40,17.80
2009,08,03,03,41,17.80
2009,08,03,03,42,17.80
2009,08,03,03,43,17.80
2009,08,03,03,44,17.80
2009,08,03,03,45,17.80
2009,08,03,03,46,17.80
2009,08,03,03,47,17.80
2009,08,03,03,48,17.80
2009,08,03,03,49,17.80
2009,08,03,03,50,17.80
2009,08,03,03,51,17.80
2009,08,03,03,52,17.80
2009,08,03,03,53,17.80
2009,08,03,03,54,17.80
2009,08,03,03,55,17.80
2009,08,03,03,56,17.80
2009,08,03,03,57,17.70
2009,08,03,03,58,17.70
2009,08,03,03,59,17.70
2009,08,03,04,00,17.70
2009,08,03,04,01,17.70
2009,08,03,04,02,17.60
2009,08,03,04,03,17.60
2009,08,03,04,04,17.60
2009,08,03,04,05,17.60
2009,08,03,04,06,17.60
2009,08,03,04,07,17.60
2009,08,03,04,08,17.60
2009,08,03,04,09,17.60
2009,08,03,04,10,17.60
2009,08,03,04,11,17.60
2009,08,03,04,12,17.60
2009,08,03,04,13,17.60
2009,08,03,04,14,17.60
2009,08,03,04,15,17.60
2009,08,03,04,16,17.60
2009,08,03,04,17,17.60
2009,08,03,04,18,17.60
2009,08,03,04,19,17.60
2009,08,03,04,20,17.60
2009,08,03,04,21,17.60
2009,08,03,04,22,17.60
2009,08,03,04,23,17.50
2009,08,03,04,24,17.50
2009,08,03,04,25,17.60
2009,08,03,04,26,17.60
2009,08,03,04,27,17.60
2009,08,03,04,28,17.60
2009,08,03,04,29,17.60
2009,08,03,04,30,17.60
2009,08,03,04,31,17.70
2009,08,03,04,32,17.80
2009,08,03,04,33,17.80
2009,08,03,04,34,17.80
2009,08,03,04,35,17.90
2009,08,03,04,36,17.90
2009,08,03,04,37,18.00
2009,08,03,04,38,18.00
2009,08,03,04,39,18.10
2009,08,03,04,40,18.10
2009,08,03,04,41,18.10
2009,08,03,04,42,18.20
2009,08,03,04,43,18.20
2009,08,03,04,44,18.20
2009,08,03,04,45,18.20
2009,08,03,04,46,18.20
2009,08,03,04,47,18.20
2009,08,03,04,48,18.20
2009,08,03,04,49,18.20
2009,08,03,04,50,18.30
2009,08,03,04,51,18.30
2009,08,03,04,52,18.30
2009,08,03,04,53,18.30
2009,08,03,04,54,18.40
2009,08,03,04,55,18.40
2009,08,03,04,56,18.40
2009,08,03,04,57,18.40
2009,08,03,04,58,18.40
2009,08,03,04,59,18.40
2009,08,03,05,00,18.40
2009,08,03,05,01,18.40
2009,08,03,05,02,18.40
2009,08,03,05,03,18.40
2009,08,03,05,04,18.40
2009,08,03,05,05,18.40
2009,08,03,05,06,18.40
2009,08,03,05,07,18.30
2009,08,03,05,08,18.30
2009,08,03,05,09,18.30
2009,08,03,05,10,18.30
2009,08,03,05,11,18.20
2009,08,03,05,12,18.20
2009,08,03,05,13,18.20
2009,08,03,05,14,18.20
2009,08,03,05,15,18.20
2009,08,03,05,16,18.20
2009,08,03,05,17,18.10
2009,08,03,05,18,18.10
2009,08,03,05,19,18.10
2009,08,03,05,20,18.10
2009,08,03,05,21,18.10
2009,08,03,05,22,18.10
2009,08,03,05,23,18.00
2009,08,03,05,24,18.00
2009,08,03,05,25,18.00
2009,08,03,05,26,17.90
2009,08,03,05,27,17.90
2009,08,03,05,28,17.90
2009,08,03,05,29,17.90
2009,08,03,05,30,17.80
2009,08,03,05,31,17.80
2009,08,03,05,32,17.80
2009,08,03,05,33,17.80
2009,08,03,05,34,17.80
2009,08,03,05,35,17.80
2009,08,03,05,36,17.80
2009,08,03,05,37,17.80
2009,08,03,05,38,17.80
2009,08,03,05,39,17.80
2009,08,03,05,40,17.80
2009,08,03,05,41,17.80
2009,08,03,05,42,17.80
2009,08,03,05,43,17.80
2009,08,03,05,44,17.80
2009,08,03,05,45,17.70
2009,08,03,05,46,17.70
2009,08,03,05,47,17.70
2009,08,03,05,48,17.70
2009,08,03,05,49,17.70
2009,08,03,05,50,17.70
2009,08,03,05,51,17.70
2009,08,03,05,52,17.60
2009,08,03,05,53,17.60
2009,08,03,05,54,17.60
2009,08,03,05,55,17.60
2009,08,03,05,56,17.60
2009,08,03,05,57,17.60
2009,08,03,05,58,17.60
2009,08,03,05,59,17.60
2009,08,03,06,00,17.60
2009,08,03,06,01,17.60
2009,08,03,06,02,17.60
2009,08,03,06,03,17.60
2009,08,03,06,04,17.60
2009,08,03,06,05,17.60
2009,08,03,06,06,17.60
2009,08,03,06,07,17.60
2009,08,03,06,08,17.60
2009,08,03,06,09,17.70
2009,08,03,06,10,17.70
2009,08,03,06,11,17.70
2009,08,03,06,12,17.70
2009,08,03,06,13,17.70
2009,08,03,06,14,17.70
2009,08,03,06,15,17.70
2009,08,03,06,16,17.70
2009,08,03,06,17,17.70
2009,08,03,06,18,17.70
2009,08,03,06,19,17.70
2009,08,03,06,20,17.70
2009,08,03,06,21,17.70
2009,08,03,06,22,17.70
2009,08,03,06,23,17.70
2009,08,03,06,24,17.70
2009,08,03,06,25,17.70
2009,08,03,06,26,17.70
2009,08,03,06,27,17.70
2009,08,03,06,28,17.70
2009,08,03,06,29,17.70
2009,08,03,06,30,17.70
2009,08,03,06,31,17.70
2009,08,03,06,32,17.70
2009,08,03,06,33,17.70
2009,08,03,06,34,17.70
2009,08,03,06,35,17.70
2009,08,03,06,36,17.70
2009,08,03,06,37,17.70
2009,08,03,06,38,17.70
2009,08,03,06,39,17.70
2009,08,03,06,40,17.70
2009,08,03,06,41,17.80
2009,08,03,06,42,17.80
2009,08,03,06,43,17.80
2009,08,03,06,44,17.80
2009,08,03,06,45,17.80
2009,08,03,06,46,17.80
2009,08,03,06,47,17.90
2009,08,03,06,48,17.90
2009,08,03,06,49,18.00
2009,08,03,06,50,18.00
2009,08,03,06,51,18.00
2009,08,03,06,52,18.10
2009,08,03,06,53,18.10
2009,08,03,06,54,18.10
2009,08,03,06,55,18.10
2009,08,03,06,56,18.10
2009,08,03,06,57,18.10
2009,08,03,06,58,18.10
2009,08,03,06,59,18.10
2009,08,03,07,00,18.10
2009,08,03,07,01,18.20
2009,08,03,07,02,18.20
2009,08,03,07,03,18.20
2009,08,03,07,04,18.20
2009,08,03,07,05,18.20
2009,08,03,07,06,18.20
2009,08,03,07,07,18.20
2009,08,03,07,08,18.20
2009,08,03,07,09,18.20
2009,08,03,07,10,18.20
2009,08,03,07,11,18.20
2009,08,03,07,12,18.20
2009,08,03,07,13,18.20
2009,08,03,07,14,18.20
2009,08,03,07,15,18.20
2009,08,03,07,16,18.20
2009,08,03,07,17,18.20
2009,08,03,07,18,18.20
2009,08,03,07,19,18.20
2009,08,03,07,20,18.20
2009,08,03,07,21,18.20
2009,08,03,07,22,18.20
2009,08,03,07,23,18.20
2009,08,03,07,24,18.20
2009,08,03,07,25,18.20
2009,08,03,07,26,18.20
2009,08,03,07,27,18.20
2009,08,03,07,28,18.20
2009,08,03,07,29,18.20
2009,08,03,07,30,18.20
2009,08,03,07,31,18.20
2009,08,03,07,32,18.20
2009,08,03,07,33,18.20
2009,08,03,07,34,18.20
2009,08,03,07,35,18.20
2009,08,03,07,36,18.30
2009,08,03,07,37,18.30
2009,08,03,07,38,18.30
2009,08,03,07,39,18.30
2009,08,03,07,40,18.30
2009,08,03,07,41,18.30
2009,08,03,07,42,18.30
2009,08,03,07,43,18.30
2009,08,03,07,44,18.40
2009,08,03,07,45,18.40
2009,08,03,07,46,18.40
2009,08,03,07,47,18.40
2009,08,03,07,48,18.40
2009,08,03,07,49,18.50
2009,08,03,07,50,18.50
2009,08,03,07,51,18.60
2009,08,03,07,52,18.60
2009,08,03,07,53,18.60
2009,08,03,07,54,18.60
2009,08,03,07,55,18.60
2009,08,03,07,56,18.70
2009,08,03,07,57,18.70
2009,08,03,07,58,18.70
2009,08,03,07,59,18.70
2009,08,03,08,00,18.70
2009,08,03,08,01,18.70
2009,08,03,08,02,18.80
2009,08,03,08,03,18.80
2009,08,03,08,04,18.80
2009,08,03,08,05,18.80
2009,08,03,08,06,18.80
2009,08,03,08,07,18.80
2009,08,03,08,08,18.80
2009,08,03,08,09,18.80
2009,08,03,08,10,18.80
2009,08,03,08,11,18.80
2009,08,03,08,12,18.80
2009,08,03,08,13,18.80
2009,08,03,08,14,18.80
2009,08,03,08,15,18.80
2009,08,03,08,16,18.80
2009,08,03,08,17,18.80
2009,08,03,08,18,18.80
2009,08,03,08,19,18.80
2009,08,03,08,20,18.80
2009,08,03,08,21,18.80
2009,08,03,08,22,18.80
2009,08,03,08,23,18.80
2009,08,03,08,24,18.80
2009,08,03,08,25,18.80
2009,08,03,08,26,18.90
2009,08,03,08,27,18.90
2009,08,03,08,28,18.90
2009,08,03,08,29,18.90
2009,08,03,08,30,18.90
2009,08,03,08,31,18.90
2009,08,03,08,32,19.00
2009,08,03,08,33,19.00
2009,08,03,08,34,19.10
2009,08,03,08,35,19.10
2009,08,03,08,36,19.10
2009,08,03,08,37,19.10
2009,08,03,08,38,19.20
2009,08,03,08,39,19.20
2009,08,03,08,40,19.20
2009,08,03,08,41,19.30
2009,08,03,08,42,19.30
2009,08,03,08,43,19.30
2009,08,03,08,44,19.40
2009,08,03,08,45,19.40
2009,08,03,08,46,19.40
2009,08,03,08,47,19.50
2009,08,03,08,48,19.50
2009,08,03,08,49,19.60
2009,08,03,08,50,19.60
2009,08,03,08,51,19.70
2009,08,03,08,52,19.70
2009,08,03,08,53,19.80
2009,08,03,08,54,19.80
2009,08,03,08,55,19.90
2009,08,03,08,56,19.90
2009,08,03,08,57,19.90
2009,08,03,08,58,19.90
2009,08,03,08,59,19.90
2009,08,03,09,00,19.90
2009,08,03,09,01,19.90
2009,08,03,09,02,20.00
2009,08,03,09,03,20.00
2009,08,03,09,04,20.00
2009,08,03,09,05,20.00
2009,08,03,09,06,20.00
2009,08,03,09,07,20.00
2009,08,03,09,08,20.00
2009,08,03,09,09,20.00
2009,08,03,09,10,20.10
2009,08,03,09,11,20.10
2009,08,03,09,12,20.20
2009,08,03,09,13,20.20
2009,08,03,09,14,20.30
2009,08,03,09,15,20.30
2009,08,03,09,16,20.30
2009,08,03,09,17,20.30
2009,08,03,09,18,20.30
2009,08,03,09,19,20.30
2009,08,03,09,20,20.30
2009,08,03,09,21,20.30
2009,08,03,09,22,20.30
2009,08,03,09,23,20.30
2009,08,03,09,24,20.20
2009,08,03,09,25,20.20
2009,08,03,09,26,20.20
2009,08,03,09,27,20.10
2009,08,03,09,28,20.10
2009,08,03,09,29,20.10
2009,08,03,09,30,20.10
2009,08,03,09,31,20.20
2009,08,03,09,32,20.20
2009,08,03,09,33,20.20
2009,08,03,09,34,20.20
2009,08,03,09,35,20.20
2009,08,03,09,36,20.20
2009,08,03,09,37,20.20
2009,08,03,09,38,20.20
2009,08,03,09,39,20.30
2009,08,03,09,40,20.30
2009,08,03,09,41,20.30
2009,08,03,09,42,20.40
2009,08,03,09,43,20.40
2009,08,03,09,44,20.40
2009,08,03,09,45,20.50
2009,08,03,09,46,20.50
2009,08,03,09,47,20.60
2009,08,03,09,48,20.60
2009,08,03,09,49,20.70
2009,08,03,09,50,20.70
2009,08,03,09,51,20.70
2009,08,03,09,52,20.70
2009,08,03,09,53,20.70
2009,08,03,09,54,20.70
2009,08,03,09,55,20.70
2009,08,03,09,56,20.80
2009,08,03,09,57,20.80
2009,08,03,09,58,20.80
2009,08,03,09,59,20.80
2009,08,03,10,00,20.90
2009,08,03,10,01,21.00
2009,08,03,10,02,21.00
2009,08,03,10,03,21.00
2009,08,03,10,04,21.10
2009,08,03,10,05,21.10
2009,08,03,10,06,21.10
2009,08,03,10,07,21.20
2009,08,03,10,08,21.10
2009,08,03,10,09,21.10
2009,08,03,10,10,21.10
2009,08,03,10,11,21.10
2009,08,03,10,12,21.10
2009,08,03,10,13,21.10
2009,08,03,10,14,21.10
2009,08,03,10,15,21.10
2009,08,03,10,16,21.10
2009,08,03,10,17,21.20
2009,08,03,10,18,21.30
2009,08,03,10,19,21.30
2009,08,03,10,20,21.40
2009,08,03,10,21,21.50
2009,08,03,10,22,21.60
2009,08,03,10,23,21.70
2009,08,03,10,24,21.70
2009,08,03,10,25,21.70
2009,08,03,10,26,21.70
2009,08,03,10,27,21.70
2009,08,03,10,28,21.70
2009,08,03,10,29,21.80
2009,08,03,10,30,21.80
2009,08,03,10,31,21.70
2009,08,03,10,32,21.70
2009,08,03,10,33,21.80
2009,08,03,10,34,21.80
2009,08,03,10,35,21.80
2009,08,03,10,36,21.80
2009,08,03,10,37,21.90
2009,08,03,10,38,21.90
2009,08,03,10,39,21.90
2009,08,03,10,40,21.90
2009,08,03,10,41,21.90
2009,08,03,10,42,21.90
2009,08,03,10,43,22.00
2009,08,03,10,44,22.00
2009,08,03,10,45,22.00
2009,08,03,10,46,22.00
2009,08,03,10,47,22.00
2009,08,03,10,48,21.90
2009,08,03,10,49,21.90
2009,08,03,10,50,22.00
2009,08,03,10,51,22.10
2009,08,03,10,52,22.10
2009,08,03,10,53,22.20
2009,08,03,10,54,22.20
2009,08,03,10,55,22.20
2009,08,03,10,56,22.30
2009,08,03,10,57,22.40
2009,08,03,10,58,22.50
2009,08,03,10,59,22.60
2009,08,03,11,00,22.70
2009,08,03,11,01,22.80
2009,08,03,11,02,22.80
2009,08,03,11,03,22.80
2009,08,03,11,04,22.80
2009,08,03,11,05,22.80
2009,08,03,11,06,22.80
2009,08,03,11,07,22.80
2009,08,03,11,08,22.80
2009,08,03,11,09,22.90
2009,08,03,11,10,22.90
2009,08,03,11,11,22.90
2009,08,03,11,12,22.90
2009,08,03,11,13,22.90
2009,08,03,11,14,22.80
2009,08,03,11,15,22.90
2009,08,03,11,16,22.90
2009,08,03,11,17,22.90
2009,08,03,11,18,22.90
2009,08,03,11,19,22.90
2009,08,03,11,20,22.80
2009,08,03,11,21,22.90
2009,08,03,11,22,22.90
2009,08,03,11,23,22.90
2009,08,03,11,24,22.90
2009,08,03,11,25,22.90
2009,08,03,11,26,22.90
2009,08,03,11,27,23.00
2009,08,03,11,28,23.10
2009,08,03,11,29,23.10
2009,08,03,11,30,23.20
2009,08,03,11,31,23.20
2009,08,03,11,32,23.30
2009,08,03,11,33,23.30
2009,08,03,11,34,23.30
2009,08,03,11,35,23.30
2009,08,03,11,36,23.30
2009,08,03,11,37,23.30
2009,08,03,11,38,23.30
2009,08,03,11,39,23.40
2009,08,03,11,40,23.40
2009,08,03,11,41,23.40
2009,08,03,11,42,23.40
2009,08,03,11,43,23.50
2009,08,03,11,44,23.50
2009,08,03,11,45,23.60
2009,08,03,11,46,23.40
2009,08,03,11,47,23.30
2009,08,03,11,48,23.30
2009,08,03,11,49,23.30
2009,08,03,11,50,23.30
2009,08,03,11,51,23.40
2009,08,03,11,52,23.40
2009,08,03,11,53,23.40
2009,08,03,11,54,23.40
2009,08,03,11,55,23.40
2009,08,03,11,56,23.40
2009,08,03,11,57,23.40
2009,08,03,11,58,23.40
2009,08,03,11,59,23.40
2009,08,03,12,00,23.40
2009,08,03,12,01,23.40
2009,08,03,12,02,23.50
2009,08,03,12,03,23.50
2009,08,03,12,04,23.60
2009,08,03,12,05,23.60
2009,08,03,12,06,23.60
2009,08,03,12,07,23.60
2009,08,03,12,08,23.60
2009,08,03,12,09,23.60
2009,08,03,12,10,23.70
2009,08,03,12,11,23.70
2009,08,03,12,12,23.80
2009,08,03,12,13,23.80
2009,08,03,12,14,23.80
2009,08,03,12,15,23.80
2009,08,03,12,16,23.70
2009,08,03,12,17,23.60
2009,08,03,12,18,23.60
2009,08,03,12,19,23.60
2009,08,03,12,20,23.60
2009,08,03,12,21,23.60
2009,08,03,12,22,23.60
2009,08,03,12,23,23.50
2009,08,03,12,24,23.60
2009,08,03,12,25,23.60
2009,08,03,12,26,23.70
2009,08,03,12,27,23.70
2009,08,03,12,28,23.70
2009,08,03,12,29,23.70
2009,08,03,12,30,23.70
2009,08,03,12,31,23.80
2009,08,03,12,32,23.80
2009,08,03,12,33,23.80
2009,08,03,12,34,23.80
2009,08,03,12,35,23.80
2009,08,03,12,36,23.80
2009,08,03,12,37,23.80
2009,08,03,12,38,23.70
2009,08,03,12,39,23.70
2009,08,03,12,40,23.80
2009,08,03,12,41,23.80
2009,08,03,12,42,23.90
2009,08,03,12,43,23.80
2009,08,03,12,44,23.80
2009,08,03,12,45,23.80
2009,08,03,12,46,23.80
2009,08,03,12,47,23.70
2009,08,03,12,48,23.60
2009,08,03,12,49,23.60
2009,08,03,12,50,23.70
2009,08,03,12,51,23.70
2009,08,03,12,52,23.80
2009,08,03,12,53,23.90
2009,08,03,12,54,23.90
2009,08,03,12,55,23.90
2009,08,03,12,56,24.00
2009,08,03,12,57,24.00
2009,08,03,12,58,24.00
2009,08,03,12,59,24.10
2009,08,03,13,00,24.10
2009,08,03,13,01,24.20
2009,08,03,13,02,24.20
2009,08,03,13,03,24.20
2009,08,03,13,04,24.10
2009,08,03,13,05,24.10
2009,08,03,13,06,24.00
2009,08,03,13,07,23.90
2009,08,03,13,08,24.00
2009,08,03,13,09,24.00
2009,08,03,13,10,23.90
2009,08,03,13,11,24.00
2009,08,03,13,12,23.90
2009,08,03,13,13,23.90
2009,08,03,13,14,23.80
2009,08,03,13,15,23.80
2009,08,03,13,16,23.80
2009,08,03,13,17,23.80
2009,08,03,13,18,23.90
2009,08,03,13,19,23.90
2009,08,03,13,20,23.90
2009,08,03,13,21,24.00
2009,08,03,13,22,24.00
2009,08,03,13,23,24.00
2009,08,03,13,24,24.10
2009,08,03,13,25,24.10
2009,08,03,13,26,24.10
2009,08,03,13,27,24.10
2009,08,03,13,28,24.20
2009,08,03,13,29,24.30
2009,08,03,13,30,24.50
2009,08,03,13,31,24.50
2009,08,03,13,32,24.60
2009,08,03,13,33,24.70
2009,08,03,13,34,24.60
2009,08,03,13,35,24.50
2009,08,03,13,36,24.40
2009,08,03,13,37,24.30
2009,08,03,13,38,24.30
2009,08,03,13,39,24.30
2009,08,03,13,40,24.40
2009,08,03,13,41,24.50
2009,08,03,13,42,24.50
2009,08,03,13,43,24.60
2009,08,03,13,44,24.70
2009,08,03,13,45,24.70
2009,08,03,13,46,24.80
2009,08,03,13,47,24.80
2009,08,03,13,48,24.90
2009,08,03,13,49,24.90
2009,08,03,13,50,25.00
2009,08,03,13,51,25.00
2009,08,03,13,52,25.10
2009,08,03,13,53,25.10
2009,08,03,13,54,25.20
2009,08,03,13,55,25.20
2009,08,03,13,56,25.10
2009,08,03,13,57,24.90
2009,08,03,13,58,24.90
2009,08,03,13,59,24.80
2009,08,03,14,00,24.70
2009,08,03,14,01,24.60
2009,08,03,14,02,24.60
2009,08,03,14,03,24.60
2009,08,03,14,04,24.60
2009,08,03,14,05,24.60
2009,08,03,14,06,24.60
2009,08,03,14,07,24.70
2009,08,03,14,08,24.70
2009,08,03,14,09,24.70
2009,08,03,14,10,24.60
2009,08,03,14,11,24.60
2009,08,03,14,12,24.60
2009,08,03,14,13,24.60
2009,08,03,14,14,24.60
2009,08,03,14,15,24.70
2009,08,03,14,16,24.70
2009,08,03,14,17,24.70
2009,08,03,14,18,24.70
2009,08,03,14,19,24.80
2009,08,03,14,20,24.90
2009,08,03,14,21,25.00
2009,08,03,14,22,25.00
2009,08,03,14,23,25.10
2009,08,03,14,24,25.20
2009,08,03,14,25,25.20
2009,08,03,14,26,25.40
2009,08,03,14,27,25.50
2009,08,03,14,28,25.60
2009,08,03,14,29,25.70
2009,08,03,14,30,25.70
2009,08,03,14,31,25.80
2009,08,03,14,32,25.80
2009,08,03,14,33,25.60
2009,08,03,14,34,25.60
2009,08,03,14,35,25.50
2009,08,03,14,36,25.50
2009,08,03,14,37,25.60
2009,08,03,14,38,25.70
2009,08,03,14,39,25.70
2009,08,03,14,40,25.80
2009,08,03,14,41,25.80
2009,08,03,14,42,25.80
2009,08,03,14,43,25.80
2009,08,03,14,44,25.80
2009,08,03,14,45,25.80
2009,08,03,14,46,25.80
2009,08,03,14,47,25.70
2009,08,03,14,48,25.60
2009,08,03,14,49,25.60
2009,08,03,14,50,25.60
2009,08,03,14,51,25.60
2009,08,03,14,52,25.70
2009,08,03,14,53,25.70
2009,08,03,14,54,25.70
2009,08,03,14,55,25.70
2009,08,03,14,56,25.70
2009,08,03,14,57,25.70
2009,08,03,14,58,25.70
2009,08,03,14,59,25.80
2009,08,03,15,00,25.80
2009,08,03,15,01,25.70
2009,08,03,15,02,25.70
2009,08,03,15,03,25.60
2009,08,03,15,04,25.70
2009,08,03,15,05,25.70
2009,08,03,15,06,25.70
2009,08,03,15,07,25.80
2009,08,03,15,08,25.80
2009,08,03,15,09,25.90
2009,08,03,15,10,25.90
2009,08,03,15,11,25.90
2009,08,03,15,12,25.90
2009,08,03,15,13,25.90
2009,08,03,15,14,25.80
2009,08,03,15,15,25.80
2009,08,03,15,16,25.80
2009,08,03,15,17,25.80
2009,08,03,15,18,25.80
2009,08,03,15,19,25.90
2009,08,03,15,20,25.90
2009,08,03,15,21,25.90
2009,08,03,15,22,25.90
2009,08,03,15,23,25.90
2009,08,03,15,24,25.90
2009,08,03,15,25,25.90
2009,08,03,15,26,25.90
2009,08,03,15,27,25.90
2009,08,03,15,28,25.90
2009,08,03,15,29,25.80
2009,08,03,15,30,25.80
2009,08,03,15,31,25.70
2009,08,03,15,32,25.70
2009,08,03,15,33,25.70
2009,08,03,15,34,25.90
2009,08,03,15,35,26.00
2009,08,03,15,36,26.10
2009,08,03,15,37,26.20
2009,08,03,15,38,26.20
2009,08,03,15,39,26.30
2009,08,03,15,40,26.20
2009,08,03,15,41,26.10
2009,08,03,15,42,26.00
2009,08,03,15,43,26.00
2009,08,03,15,44,26.00
2009,08,03,15,45,26.10
2009,08,03,15,46,26.10
2009,08,03,15,47,25.90
2009,08,03,15,48,25.90
2009,08,03,15,49,25.90
2009,08,03,15,50,25.90
2009,08,03,15,51,26.00
2009,08,03,15,52,26.00
2009,08,03,15,53,26.10
2009,08,03,15,54,26.10
2009,08,03,15,55,26.00
2009,08,03,15,56,26.00
2009,08,03,15,57,25.90
2009,08,03,15,58,25.90
2009,08,03,15,59,25.90
2009,08,03,16,00,25.70
2009,08,03,16,01,25.70
2009,08,03,16,02,25.70
2009,08,03,16,03,25.70
2009,08,03,16,04,25.80
2009,08,03,16,05,25.90
2009,08,03,16,06,25.90
2009,08,03,16,07,25.90
2009,08,03,16,08,25.90
2009,08,03,16,09,25.90
2009,08,03,16,10,25.90
2009,08,03,16,11,25.90
2009,08,03,16,12,25.80
2009,08,03,16,13,25.80
2009,08,03,16,14,25.70
2009,08,03,16,15,25.60
2009,08,03,16,16,25.60
2009,08,03,16,17,25.60
2009,08,03,16,18,25.60
2009,08,03,16,19,25.60
2009,08,03,16,20,25.60
2009,08,03,16,21,25.60
2009,08,03,16,22,25.60
2009,08,03,16,23,25.50
2009,08,03,16,24,25.50
2009,08,03,16,25,25.50
2009,08,03,16,26,25.60
2009,08,03,16,27,25.60
2009,08,03,16,28,25.70
2009,08,03,16,29,25.70
2009,08,03,16,30,25.70
2009,08,03,16,31,25.70
2009,08,03,16,32,25.70
2009,08,03,16,33,25.80
2009,08,03,16,34,25.90
2009,08,03,16,35,25.90
2009,08,03,16,36,25.80
2009,08,03,16,37,25.80
2009,08,03,16,38,25.70
2009,08,03,16,39,25.70
2009,08,03,16,40,25.60
2009,08,03,16,41,25.60
2009,08,03,16,42,25.60
2009,08,03,16,43,25.70
2009,08,03,16,44,25.70
2009,08,03,16,45,25.80
2009,08,03,16,46,25.80
2009,08,03,16,47,25.90
2009,08,03,16,48,25.90
2009,08,03,16,49,26.10
2009,08,03,16,50,26.20
2009,08,03,16,51,26.30
2009,08,03,16,52,26.30
2009,08,03,16,53,26.30
2009,08,03,16,54,26.30
2009,08,03,16,55,26.40
2009,08,03,16,56,26.40
2009,08,03,16,57,26.40
2009,08,03,16,58,26.30
2009,08,03,16,59,26.30
2009,08,03,17,00,26.20
2009,08,03,17,01,26.20
2009,08,03,17,02,26.20
2009,08,03,17,03,26.20
2009,08,03,17,04,26.30
2009,08,03,17,05,26.40
2009,08,03,17,06,26.40
2009,08,03,17,07,26.40
2009,08,03,17,08,26.50
2009,08,03,17,09,26.60
2009,08,03,17,10,26.70
2009,08,03,17,11,26.80
2009,08,03,17,12,26.90
2009,08,03,17,13,26.90
2009,08,03,17,14,26.90
2009,08,03,17,15,26.90
2009,08,03,17,16,26.90
2009,08,03,17,17,27.00
2009,08,03,17,18,27.00
2009,08,03,17,19,27.00